| time (UTC) | temp F | wind direction | speed knots | gust knots | rain 1hr in | rain 24hr in | rain mn in | humidity % | barometer mb |
| 20260905214531 | 94 | 127 | 8.7 | 13.0 | 0.00 | 0.00 | 0.00 | 57 | 1009.9 |
| 20260905214300 | 95 | 143 | 8.7 | 13.0 | 0.00 | 0.00 | 0.00 | 58 | 1013.0 |
| 20260905213810 | 94 | 133 | 7.8 | 13.0 | 0.00 | 0.00 | 0.00 | 57 | 1013.0 |
| 20260905213233 | 94 | 117 | 8.7 | 13.9 | 0.00 | 0.00 | 0.00 | 57 | 1013.2 |
| 20260905213050 | 94 | 92 | 8.7 | 13.9 | 0.00 | 0.00 | 0.00 | 57 | 1010.3 |
| 20260905212806 | 94 | 105 | 10.4 | 14.8 | 0.00 | 0.00 | 0.00 | 56 | 1013.3 |
| 20260905212227 | 94 | 92 | 7.0 | 14.8 | 0.00 | 0.00 | 0.00 | 57 | 1013.4 |
| 20260905211759 | 94 | 77 | 8.7 | 13.9 | 0.00 | 0.00 | 0.00 | 56 | 1013.5 |
| 20260905211503 | 93 | 119 | 7.0 | 13.9 | 0.00 | 0.00 | 0.00 | 57 | 1010.6 |
| 20260905211247 | 94 | 136 | 8.7 | 13.9 | 0.00 | 0.00 | 0.00 | 57 | 1013.6 |
| 20260905210729 | 94 | 127 | 9.6 | 13.0 | 0.00 | 0.00 | 0.00 | 57 | 1013.6 |
| 20260905210301 | 94 | 78 | 7.8 | 13.9 | 0.00 | 0.00 | 0.00 | 56 | 1013.7 |
| 20260905210043 | 93 | 69 | 7.0 | 13.9 | 0.00 | 0.00 | 0.00 | 56 | 1010.7 |
| 20260905205751 | 94 | 123 | 8.7 | 13.9 | 0.00 | 0.00 | 0.00 | 56 | 1013.9 |
| 20260905205242 | 94 | 104 | 9.6 | 13.9 | 0.00 | 0.00 | 0.00 | 56 | 1014.0 |
| 20260905204733 | 94 | 140 | 7.8 | 14.8 | 0.00 | 0.00 | 0.00 | 56 | 1014.0 |
| 20260905204507 | 93 | 87 | 9.6 | 15.6 | 0.00 | 0.00 | 0.00 | 55 | 1011.0 |
| 20260905204242 | 94 | 101 | 9.6 | 15.6 | 0.00 | 0.00 | 0.00 | 55 | 1014.2 |
| 20260905203724 | 94 | 63 | 10.4 | 15.6 | 0.00 | 0.00 | 0.00 | 56 | 1014.2 |
| 20260905203235 | 94 | 87 | 10.4 | 15.6 | 0.00 | 0.00 | 0.00 | 53 | 1014.4 |
| 20260905203010 | 93 | 101 | 8.7 | 15.6 | 0.00 | 0.00 | 0.00 | 54 | 1011.4 |
| 20260905202746 | 93 | 99 | 9.6 | 14.8 | 0.00 | 0.00 | 0.00 | 55 | 1014.4 |
| 20260905202230 | 93 | 89 | 10.4 | 16.5 | 0.00 | 0.00 | 0.00 | 55 | 1014.7 |
| 20260905201742 | 94 | 92 | 12.2 | 16.5 | 0.00 | 0.00 | 0.00 | 53 | 1014.9 |
| 20260905201554 | 93 | 90 | 11.3 | 16.5 | 0.00 | 0.00 | 0.00 | 54 | 1011.8 |
| 20260905201233 | 94 | 81 | 10.4 | 14.8 | 0.00 | 0.00 | 0.00 | 56 | 1015.0 |
| 20260905200743 | 94 | 53 | 7.0 | 15.6 | 0.00 | 0.00 | 0.00 | 55 | 1015.2 |
| 20260905200222 | 94 | 50 | 10.4 | 14.8 | 0.00 | 0.00 | 0.00 | 57 | 1015.2 |
| 20260905200105 | 94 | 50 | 9.6 | 14.8 | 0.00 | 0.00 | 0.00 | 57 | 1012.1 |
| 20260905195734 | 94 | 59 | 10.4 | 15.6 | 0.00 | 0.00 | 0.00 | 58 | 1015.2 |
| 20260905195247 | 94 | 81 | 7.8 | 15.6 | 0.00 | 0.00 | 0.00 | 58 | 1015.2 |
| 20260905194732 | 93 | 55 | 8.7 | 17.4 | 0.00 | 0.00 | 0.00 | 58 | 1015.2 |
| 20260905194507 | 93 | 87 | 10.4 | 17.4 | 0.00 | 0.00 | 0.00 | 58 | 1012.1 |
| 20260905194245 | 93 | 108 | 12.2 | 17.4 | 0.00 | 0.00 | 0.00 | 58 | 1015.1 |
| 20260905193735 | 93 | 98 | 8.7 | 14.8 | 0.00 | 0.00 | 0.00 | 61 | 1015.3 |
| 20260905193307 | 93 | 112 | 9.6 | 15.6 | 0.00 | 0.00 | 0.00 | 61 | 1015.4 |
| 20260905193029 | 92 | 76 | 7.8 | 15.6 | 0.00 | 0.00 | 0.00 | 61 | 1012.2 |
| 20260905192726 | 93 | 82 | 11.3 | 17.4 | 0.00 | 0.00 | 0.00 | 60 | 1015.4 |
| 20260905192257 | 93 | 88 | 10.4 | 18.2 | 0.00 | 0.00 | 0.00 | 61 | 1015.5 |
| 20260905191720 | 92 | 39 | 11.3 | 18.2 | 0.00 | 0.00 | 0.00 | 61 | 1015.5 |
| 20260905191520 | 92 | 92 | 10.4 | 18.2 | 0.00 | 0.00 | 0.00 | 62 | 1012.5 |
| 20260905191234 | 92 | 48 | 11.3 | 18.2 | 0.00 | 0.00 | 0.00 | 61 | 1015.7 |
| 20260905190744 | 92 | 108 | 13.0 | 18.2 | 0.00 | 0.00 | 0.00 | 61 | 1015.8 |
| 20260905190228 | 92 | 105 | 11.3 | 17.4 | 0.00 | 0.00 | 0.00 | 61 | 1015.9 |
| 20260905190034 | 92 | 51 | 10.4 | 18.2 | 0.00 | 0.00 | 0.00 | 61 | 1012.9 |
| 20260905185739 | 92 | 89 | 11.3 | 19.1 | 0.00 | 0.00 | 0.00 | 62 | 1016.1 |
| 20260905185223 | 92 | 39 | 12.2 | 19.1 | 0.00 | 0.00 | 0.00 | 60 | 1016.2 |
| 20260905184730 | 92 | 95 | 12.2 | 19.1 | 0.00 | 0.00 | 0.00 | 61 | 1016.4 |
| 20260905184528 | 91 | 56 | 10.4 | 17.4 | 0.00 | 0.00 | 0.00 | 62 | 1013.2 |
| 20260905184241 | 91 | 70 | 11.3 | 17.4 | 0.00 | 0.00 | 0.00 | 62 | 1016.4 |
| 20260905183723 | 91 | 75 | 13.0 | 19.1 | 0.00 | 0.00 | 0.00 | 63 | 1016.6 |
| 20260905183235 | 91 | 33 | 11.3 | 20.0 | 0.00 | 0.00 | 0.00 | 63 | 1016.7 |
| 20260905183034 | 91 | 17 | 11.3 | 20.0 | 0.00 | 0.00 | 0.00 | 63 | 1013.6 |
| 20260905182748 | 91 | 5 | 11.3 | 20.0 | 0.00 | 0.00 | 0.00 | 62 | 1016.8 |
| 20260905182230 | 91 | 27 | 13.9 | 21.7 | 0.00 | 0.00 | 0.00 | 62 | 1016.6 |
| 20260905181742 | 92 | 40 | 13.0 | 21.7 | 0.00 | 0.00 | 0.00 | 62 | 1016.7 |
| 20260905181536 | 91 | 22 | 11.3 | 21.7 | 0.00 | 0.00 | 0.00 | 61 | 1013.6 |
| 20260905181227 | 92 | 30 | 11.3 | 21.7 | 0.00 | 0.00 | 0.00 | 61 | 1016.6 |
| 20260905180733 | 92 | 44 | 9.6 | 17.4 | 0.00 | 0.00 | 0.00 | 63 | 1016.5 |
| 20260905180247 | 92 | 13 | 11.3 | 20.0 | 0.00 | 0.00 | 0.00 | 62 | 1016.4 |
| 20260905180038 | 92 | 43 | 12.2 | 20.0 | 0.00 | 0.00 | 0.00 | 62 | 1013.3 |
| 20260905175730 | 93 | 360 | 13.0 | 20.0 | 0.00 | 0.00 | 0.00 | 60 | 1016.5 |
| 20260905175241 | 93 | 38 | 11.3 | 20.0 | 0.00 | 0.00 | 0.00 | 60 | 1016.4 |
| 20260905174726 | 93 | 5 | 8.7 | 16.5 | 0.00 | 0.00 | 0.00 | 61 | 1016.4 |
| 20260905174543 | 92 | 50 | 7.8 | 16.5 | 0.00 | 0.00 | 0.00 | 61 | 1013.3 |
| 20260905174301 | 93 | 5 | 12.2 | 16.5 | 0.00 | 0.00 | 0.00 | 60 | 1016.3 |
| 20260905173722 | 93 | 28 | 7.8 | 13.0 | 0.00 | 0.00 | 0.00 | 60 | 1016.4 |
| 20260905173229 | 93 | 34 | 10.4 | 14.8 | 0.00 | 0.00 | 0.00 | 61 | 1016.4 |
| 20260905173023 | 93 | 16 | 7.8 | 14.8 | 0.00 | 0.00 | 0.00 | 61 | 1013.3 |
| 20260905172802 | 93 | 34 | 10.4 | 14.8 | 0.00 | 0.00 | 0.00 | 59 | 1016.4 |
| 20260905172225 | 93 | 55 | 8.7 | 13.9 | 0.00 | 0.00 | 0.00 | 60 | 1016.5 |
| 20260905171737 | 93 | 355 | 10.4 | 13.9 | 0.00 | 0.00 | 0.00 | 59 | 1016.4 |
| 20260905171513 | 93 | 12 | 8.7 | 13.9 | 0.00 | 0.00 | 0.00 | 57 | 1013.4 |
| 20260905171222 | 93 | 31 | 8.7 | 13.9 | 0.00 | 0.00 | 0.00 | 56 | 1016.5 |
| 20260905170733 | 93 | 11 | 8.7 | 14.8 | 0.00 | 0.00 | 0.00 | 57 | 1016.6 |
| 20260905170305 | 94 | 355 | 11.3 | 14.8 | 0.00 | 0.00 | 0.00 | 57 | 1016.5 |
| 20260905170052 | 93 | 348 | 9.6 | 14.8 | 0.00 | 0.00 | 0.00 | 57 | 1013.4 |
| 20260905165724 | 94 | 355 | 9.6 | 14.8 | 0.00 | 0.00 | 0.00 | 56 | 1016.6 |
| 20260905165237 | 94 | 346 | 10.4 | 14.8 | 0.00 | 0.00 | 0.00 | 57 | 1016.6 |
| 20260905164721 | 94 | 43 | 9.6 | 14.8 | 0.00 | 0.00 | 0.00 | 57 | 1016.5 |
| 20260905164553 | 94 | 5 | 8.7 | 12.2 | 0.00 | 0.00 | 0.00 | 58 | 1013.4 |
| 20260905164234 | 94 | 27 | 6.1 | 10.4 | 0.00 | 0.00 | 0.00 | 61 | 1016.6 |
| 20260905163743 | 94 | 32 | 7.8 | 10.4 | 0.00 | 0.00 | 0.00 | 61 | 1016.7 |
| 20260905163234 | 94 | 37 | 4.3 | 7.8 | 0.00 | 0.00 | 0.00 | 60 | 1016.5 |
| 20260905163037 | 93 | 355 | 4.3 | 8.7 | 0.00 | 0.00 | 0.00 | 57 | 1013.4 |
| 20260905162744 | 93 | 23 | 4.3 | 8.7 | 0.00 | 0.00 | 0.00 | 59 | 1016.5 |
| 20260905162227 | 93 | 27 | 3.5 | 8.7 | 0.00 | 0.00 | 0.00 | 58 | 1016.5 |
| 20260905161735 | 93 | 350 | 6.1 | 7.8 | 0.00 | 0.00 | 0.00 | 58 | 1016.5 |
| 20260905161546 | 93 | 355 | 5.2 | 7.8 | 0.00 | 0.00 | 0.00 | 60 | 1013.5 |
| 20260905161248 | 93 | 19 | 5.2 | 7.0 | 0.00 | 0.00 | 0.00 | 60 | 1016.4 |
| 20260905160730 | 93 | 360 | 3.5 | 7.0 | 0.00 | 0.00 | 0.00 | 60 | 1016.3 |
| 20260905160242 | 93 | 360 | 4.3 | 5.2 | 0.00 | 0.00 | 0.00 | 60 | 1016.3 |
| 20260905160049 | 92 | 10 | 3.5 | 5.2 | 0.00 | 0.00 | 0.00 | 61 | 1013.2 |
| 20260905155727 | 93 | 351 | 3.5 | 6.1 | 0.00 | 0.00 | 0.00 | 60 | 1016.2 |
| 20260905155238 | 93 | 11 | 1.7 | 4.3 | 0.00 | 0.00 | 0.00 | 61 | 1016.1 |
| 20260905154722 | 93 | 19 | 2.6 | 5.2 | 0.00 | 0.00 | 0.00 | 60 | 1016.1 |
| 20260905154555 | 92 | 24 | 2.6 | 5.2 | 0.00 | 0.00 | 0.00 | 59 | 1013.1 |
| 20260905154235 | 92 | 355 | 3.5 | 5.2 | 0.00 | 0.00 | 0.00 | 60 | 1016.1 |
| 20260905153742 | 92 | 155 | 2.6 | 4.3 | 0.00 | 0.00 | 0.00 | 60 | 1016.3 |
| 20260905153225 | 92 | 155 | 1.7 | 2.6 | 0.00 | 0.00 | 0.00 | 57 | 1016.1 |
| 20260905153055 | 92 | 155 | 0.0 | 4.3 | 0.00 | 0.00 | 0.00 | 57 | 1013.0 |
| 20260905152738 | 92 | 155 | 0.9 | 5.2 | 0.00 | 0.00 | 0.00 | 59 | 1016.0 |
| 20260905152221 | 92 | 155 | 2.6 | 5.2 | 0.00 | 0.00 | 0.00 | 60 | 1016.0 |
| 20260905151732 | 92 | 155 | 1.7 | 4.3 | 0.00 | 0.00 | 0.00 | 61 | 1016.0 |
| 20260905151555 | 91 | 155 | 1.7 | 4.3 | 0.00 | 0.00 | 0.00 | 61 | 1012.9 |
| 20260905151245 | 91 | 155 | 1.7 | 4.3 | 0.00 | 0.00 | 0.00 | 60 | 1016.1 |
| 20260905150755 | 91 | 155 | 0.9 | 2.6 | 0.00 | 0.00 | 0.00 | 61 | 1016.1 |
| 20260905150243 | 91 | 155 | 0.9 | 2.6 | 0.00 | 0.00 | 0.00 | 63 | 1016.0 |
| 20260905145736 | 90 | 155 | 0.9 | 2.6 | 0.00 | 0.00 | 0.00 | 61 | 1015.9 |
| 20260905145246 | 90 | 155 | 0.9 | 4.3 | 0.00 | 0.00 | 0.00 | 60 | 1015.6 |
| 20260905144728 | 90 | 155 | 1.7 | 4.3 | 0.00 | 0.00 | 0.00 | 62 | 1015.5 |
| 20260905144557 | 89 | 155 | 2.6 | 6.1 | 0.00 | 0.00 | 0.00 | 61 | 1012.4 |
| 20260905144242 | 89 | 139 | 1.7 | 6.1 | 0.00 | 0.00 | 0.00 | 64 | 1015.4 |
| 20260905143751 | 89 | 153 | 3.5 | 7.0 | 0.00 | 0.00 | 0.00 | 65 | 1015.4 |
| 20260905143233 | 88 | 134 | 2.6 | 7.0 | 0.00 | 0.00 | 0.00 | 66 | 1015.3 |
| 20260905143003 | 87 | 134 | 4.3 | 7.0 | 0.00 | 0.00 | 0.00 | 65 | 1012.2 |
| 20260905142741 | 88 | 148 | 3.5 | 8.7 | 0.00 | 0.00 | 0.00 | 66 | 1015.1 |
| 20260905142223 | 87 | 169 | 4.3 | 8.7 | 0.00 | 0.00 | 0.00 | 66 | 1015.0 |
| 20260905141734 | 87 | 145 | 4.3 | 7.8 | 0.00 | 0.00 | 0.00 | 66 | 1015.0 |
| 20260905141509 | 86 | 157 | 4.3 | 7.8 | 0.00 | 0.00 | 0.00 | 67 | 1012.1 |
| 20260905141307 | 86 | 149 | 4.3 | 7.8 | 0.00 | 0.00 | 0.00 | 68 | 1015.0 |
| 20260905140726 | 86 | 134 | 4.3 | 7.0 | 0.00 | 0.00 | 0.00 | 68 | 1015.0 |
| 20260905140236 | 85 | 112 | 4.3 | 7.0 | 0.00 | 0.00 | 0.00 | 70 | 1015.1 |
| 20260905140038 | 84 | 146 | 2.6 | 4.3 | 0.00 | 0.00 | 0.00 | 71 | 1012.2 |
| 20260905135748 | 85 | 146 | 2.6 | 3.5 | 0.00 | 0.00 | 0.00 | 71 | 1015.2 |
| 20260905135232 | 84 | 146 | 2.6 | 4.3 | 0.00 | 0.00 | 0.00 | 72 | 1015.3 |
| 20260905134739 | 83 | 146 | 2.6 | 4.3 | 0.00 | 0.00 | 0.00 | 73 | 1015.3 |
| 20260905134540 | 82 | 146 | 2.6 | 4.3 | 0.00 | 0.00 | 0.00 | 73 | 1012.3 |
| 20260905134251 | 82 | 146 | 2.6 | 3.5 | 0.00 | 0.00 | 0.00 | 74 | 1015.2 |
| 20260905133734 | 82 | 146 | 1.7 | 3.5 | 0.00 | 0.00 | 0.00 | 77 | 1015.2 |
| 20260905133244 | 81 | 146 | 1.7 | 3.5 | 0.00 | 0.00 | 0.00 | 78 | 1015.1 |
| 20260905133036 | 80 | 146 | 1.7 | 3.5 | 0.00 | 0.00 | 0.00 | 78 | 1012.1 |
| 20260905132726 | 80 | 146 | 2.6 | 3.5 | 0.00 | 0.00 | 0.00 | 78 | 1015.0 |
| 20260905132237 | 80 | 146 | 1.7 | 4.3 | 0.00 | 0.00 | 0.00 | 80 | 1014.8 |
| 20260905131723 | 79 | 146 | 2.6 | 4.3 | 0.00 | 0.00 | 0.00 | 80 | 1014.7 |
| 20260905131547 | 79 | 146 | 2.6 | 4.3 | 0.00 | 0.00 | 0.00 | 80 | 1011.9 |
| 20260905131236 | 79 | 146 | 2.6 | 4.3 | 0.00 | 0.00 | 0.00 | 80 | 1014.6 |
| 20260905130741 | 78 | 146 | 2.6 | 4.3 | 0.00 | 0.00 | 0.00 | 81 | 1014.7 |
| 20260905130225 | 78 | 146 | 2.6 | 3.5 | 0.00 | 0.00 | 0.00 | 81 | 1014.7 |
| 20260905130042 | 77 | 146 | 1.7 | 3.5 | 0.00 | 0.00 | 0.00 | 81 | 1011.8 |
| 20260905125736 | 77 | 146 | 2.6 | 3.5 | 0.00 | 0.00 | 0.00 | 82 | 1014.7 |
| 20260905125307 | 77 | 146 | 1.7 | 3.5 | 0.00 | 0.00 | 0.00 | 82 | 1014.6 |
| 20260905124731 | 77 | 146 | 1.7 | 4.3 | 0.00 | 0.00 | 0.00 | 81 | 1014.5 |
| 20260905124534 | 76 | 146 | 1.7 | 4.3 | 0.00 | 0.00 | 0.00 | 81 | 1011.5 |
| 20260905124243 | 77 | 146 | 2.6 | 4.3 | 0.00 | 0.00 | 0.00 | 81 | 1014.3 |
| 20260905123753 | 77 | 146 | 2.6 | 3.5 | 0.00 | 0.00 | 0.00 | 81 | 1014.3 |
| 20260905123241 | 76 | 146 | 1.7 | 3.5 | 0.00 | 0.00 | 0.00 | 81 | 1014.2 |
| 20260905123012 | 76 | 146 | 1.7 | 3.5 | 0.00 | 0.00 | 0.00 | 81 | 1011.3 |
| 20260905122724 | 76 | 146 | 1.7 | 4.3 | 0.00 | 0.00 | 0.00 | 81 | 1014.2 |
| 20260905122235 | 76 | 146 | 2.6 | 4.3 | 0.00 | 0.00 | 0.00 | 81 | 1014.0 |
| 20260905121747 | 76 | 146 | 2.6 | 4.3 | 0.00 | 0.00 | 0.00 | 81 | 1014.0 |
| 20260905121512 | 76 | 146 | 2.6 | 4.3 | 0.00 | 0.00 | 0.00 | 81 | 1011.1 |
| 20260905121229 | 76 | 146 | 3.5 | 3.5 | 0.00 | 0.00 | 0.00 | 81 | 1014.1 |
| 20260905120739 | 76 | 146 | 2.6 | 3.5 | 0.00 | 0.00 | 0.00 | 81 | 1014.1 |
| 20260905120250 | 76 | 146 | 2.6 | 3.5 | 0.00 | 0.00 | 0.00 | 80 | 1014.1 |
| 20260905120056 | 76 | 146 | 1.7 | 2.6 | 0.00 | 0.00 | 0.00 | 80 | 1011.1 |
| 20260905115736 | 76 | 146 | 2.6 | 2.6 | 0.00 | 0.00 | 0.00 | 80 | 1014.0 |
| 20260905115248 | 76 | 146 | 1.7 | 2.6 | 0.00 | 0.00 | 0.00 | 80 | 1014.0 |
| 20260905114730 | 76 | 146 | 1.7 | 4.3 | 0.00 | 0.00 | 0.00 | 80 | 1014.0 |
| 20260905114557 | 76 | 146 | 1.7 | 6.1 | 0.00 | 0.00 | 0.00 | 80 | 1011.2 |
| 20260905114243 | 76 | 146 | 1.7 | 6.1 | 0.00 | 0.00 | 0.00 | 80 | 1014.0 |
| 20260905113723 | 76 | 146 | 1.7 | 4.3 | 0.00 | 0.00 | 0.00 | 79 | 1014.0 |
| 20260905113255 | 77 | 146 | 2.6 | 4.3 | 0.00 | 0.00 | 0.00 | 79 | 1013.9 |
| 20260905113039 | 76 | 146 | 2.6 | 4.3 | 0.00 | 0.00 | 0.00 | 79 | 1010.9 |
| 20260905112746 | 77 | 157 | 2.6 | 4.3 | 0.00 | 0.00 | 0.00 | 79 | 1013.9 |
| 20260905112228 | 77 | 163 | 2.6 | 5.2 | 0.00 | 0.00 | 0.00 | 79 | 1013.8 |
| 20260905111735 | 77 | 169 | 3.5 | 5.2 | 0.00 | 0.00 | 0.00 | 79 | 1013.8 |
| 20260905111614 | 76 | 172 | 2.6 | 4.3 | 0.00 | 0.00 | 0.00 | 79 | 1010.9 |
| 20260905111249 | 77 | 200 | 2.6 | 4.3 | 0.00 | 0.00 | 0.00 | 79 | 1013.9 |
| 20260905110729 | 77 | 200 | 2.6 | 4.3 | 0.00 | 0.00 | 0.00 | 79 | 1013.9 |
| 20260905110241 | 77 | 174 | 3.5 | 5.2 | 0.00 | 0.00 | 0.00 | 79 | 1013.8 |
| 20260905110042 | 76 | 174 | 3.5 | 5.2 | 0.00 | 0.00 | 0.00 | 79 | 1010.9 |
| 20260905105723 | 77 | 198 | 2.6 | 3.5 | 0.00 | 0.00 | 0.00 | 79 | 1013.8 |
| 20260905105235 | 77 | 197 | 2.6 | 4.3 | 0.00 | 0.00 | 0.00 | 79 | 1013.9 |
| 20260905104746 | 77 | 178 | 3.5 | 4.3 | 0.00 | 0.00 | 0.00 | 78 | 1013.8 |
| 20260905104542 | 77 | 196 | 2.6 | 4.3 | 0.00 | 0.00 | 0.00 | 78 | 1010.9 |
| 20260905104230 | 77 | 198 | 3.5 | 5.2 | 0.00 | 0.00 | 0.00 | 78 | 1013.8 |
| 20260905103736 | 77 | 172 | 2.6 | 5.2 | 0.00 | 0.00 | 0.00 | 78 | 1013.7 |
| 20260905103247 | 77 | 204 | 2.6 | 5.2 | 0.00 | 0.00 | 0.00 | 78 | 1013.5 |
| 20260905103044 | 77 | 204 | 2.6 | 6.1 | 0.00 | 0.00 | 0.00 | 78 | 1010.6 |
| 20260905102730 | 77 | 203 | 2.6 | 6.1 | 0.00 | 0.00 | 0.00 | 78 | 1013.4 |
| 20260905102241 | 77 | 206 | 4.3 | 6.1 | 0.00 | 0.00 | 0.00 | 78 | 1013.4 |
| 20260905101723 | 77 | 202 | 2.6 | 4.3 | 0.00 | 0.00 | 0.00 | 78 | 1013.4 |
| 20260905101552 | 77 | 202 | 2.6 | 4.3 | 0.00 | 0.00 | 0.00 | 78 | 1010.5 |
| 20260905101236 | 77 | 202 | 2.6 | 6.1 | 0.00 | 0.00 | 0.00 | 78 | 1013.4 |
| 20260905100747 | 77 | 202 | 2.6 | 6.1 | 0.00 | 0.00 | 0.00 | 78 | 1013.4 |
| 20260905100234 | 78 | 202 | 3.5 | 7.8 | 0.00 | 0.00 | 0.00 | 78 | 1013.3 |
| 20260905100050 | 77 | 198 | 3.5 | 7.8 | 0.00 | 0.00 | 0.00 | 78 | 1010.4 |
| 20260905095746 | 78 | 198 | 4.3 | 7.8 | 0.00 | 0.00 | 0.00 | 78 | 1013.3 |
| 20260905095236 | 78 | 171 | 4.3 | 7.0 | 0.00 | 0.00 | 0.00 | 78 | 1013.2 |
| 20260905094809 | 77 | 199 | 3.5 | 7.8 | 0.00 | 0.00 | 0.00 | 79 | 1013.2 |
| 20260905094511 | 77 | 202 | 3.5 | 7.8 | 0.00 | 0.00 | 0.00 | 79 | 1010.2 |
| 20260905094234 | 78 | 170 | 4.3 | 7.8 | 0.00 | 0.00 | 0.00 | 79 | 1013.2 |
| 20260905093744 | 78 | 173 | 4.3 | 7.8 | 0.00 | 0.00 | 0.00 | 79 | 1013.1 |
| 20260905093234 | 78 | 155 | 5.2 | 7.8 | 0.00 | 0.00 | 0.00 | 79 | 1013.0 |
| 20260905093059 | 77 | 168 | 4.3 | 7.8 | 0.00 | 0.00 | 0.00 | 79 | 1010.1 |
| 20260905092801 | 78 | 167 | 5.2 | 7.8 | 0.00 | 0.00 | 0.00 | 79 | 1013.0 |
| 20260905092225 | 78 | 190 | 5.2 | 7.0 | 0.00 | 0.00 | 0.00 | 79 | 1013.0 |
| 20260905091756 | 78 | 153 | 4.3 | 7.0 | 0.00 | 0.00 | 0.00 | 79 | 1013.1 |
| 20260905091510 | 77 | 145 | 4.3 | 7.0 | 0.00 | 0.00 | 0.00 | 79 | 1010.2 |
| 20260905091247 | 78 | 155 | 4.3 | 7.0 | 0.00 | 0.00 | 0.00 | 79 | 1013.2 |
| 20260905090727 | 78 | 154 | 4.3 | 7.8 | 0.00 | 0.00 | 0.00 | 79 | 1013.2 |
| 20260905090240 | 78 | 170 | 4.3 | 6.1 | 0.00 | 0.00 | 0.00 | 79 | 1013.2 |
| 20260905090017 | 77 | 157 | 3.5 | 6.1 | 0.00 | 0.00 | 0.00 | 79 | 1010.3 |
| 20260905085723 | 78 | 168 | 3.5 | 6.1 | 0.00 | 0.00 | 0.00 | 79 | 1013.3 |
| 20260905085232 | 78 | 166 | 4.3 | 6.1 | 0.00 | 0.00 | 0.00 | 79 | 1013.3 |
| 20260905084743 | 78 | 163 | 4.3 | 6.1 | 0.00 | 0.00 | 0.00 | 79 | 1013.3 |
| 20260905084520 | 77 | 173 | 4.3 | 6.1 | 0.00 | 0.00 | 0.00 | 79 | 1010.4 |
| 20260905084227 | 78 | 160 | 4.3 | 7.0 | 0.00 | 0.00 | 0.00 | 79 | 1013.3 |
| 20260905083737 | 78 | 169 | 4.3 | 7.0 | 0.00 | 0.00 | 0.00 | 79 | 1013.4 |
| 20260905083249 | 78 | 176 | 5.2 | 7.0 | 0.00 | 0.00 | 0.00 | 79 | 1013.5 |
| 20260905083024 | 77 | 171 | 4.3 | 6.1 | 0.00 | 0.00 | 0.00 | 79 | 1010.6 |
| 20260905082731 | 78 | 173 | 4.3 | 7.0 | 0.00 | 0.00 | 0.00 | 79 | 1013.5 |
| 20260905082244 | 78 | 150 | 4.3 | 7.0 | 0.00 | 0.00 | 0.00 | 79 | 1013.5 |
| 20260905081725 | 78 | 160 | 4.3 | 6.1 | 0.00 | 0.00 | 0.00 | 79 | 1013.6 |
| 20260905081518 | 77 | 165 | 4.3 | 6.1 | 0.00 | 0.00 | 0.00 | 79 | 1010.6 |
| 20260905081235 | 78 | 154 | 4.3 | 6.1 | 0.00 | 0.00 | 0.00 | 79 | 1013.6 |
| 20260905080805 | 78 | 163 | 3.5 | 6.1 | 0.00 | 0.00 | 0.00 | 79 | 1013.7 |
| 20260905080226 | 78 | 159 | 4.3 | 6.1 | 0.00 | 0.00 | 0.00 | 78 | 1013.7 |
| 20260905075757 | 78 | 168 | 3.5 | 5.2 | 0.00 | 0.00 | 0.00 | 78 | 1013.8 |
| 20260905075247 | 78 | 168 | 3.5 | 5.2 | 0.00 | 0.00 | 0.00 | 78 | 1013.8 |
| 20260905074731 | 78 | 168 | 2.6 | 4.3 | 0.00 | 0.00 | 0.00 | 78 | 1013.9 |
| 20260905074544 | 78 | 168 | 2.6 | 4.3 | 0.00 | 0.00 | 0.00 | 78 | 1010.9 |
| 20260905074301 | 78 | 169 | 2.6 | 4.3 | 0.00 | 0.00 | 0.00 | 78 | 1013.9 |
| 20260905073750 | 78 | 168 | 1.7 | 3.5 | 0.00 | 0.00 | 0.00 | 78 | 1013.9 |
| 20260905073232 | 79 | 168 | 1.7 | 3.5 | 0.00 | 0.00 | 0.00 | 77 | 1013.9 |
| 20260905073027 | 78 | 168 | 0.9 | 2.6 | 0.00 | 0.00 | 0.00 | 77 | 1010.9 |
| 20260905072723 | 79 | 168 | 1.7 | 2.6 | 0.00 | 0.00 | 0.00 | 77 | 1013.9 |
| 20260905072254 | 79 | 168 | 1.7 | 5.2 | 0.00 | 0.00 | 0.00 | 77 | 1013.9 |
| 20260905071745 | 79 | 168 | 2.6 | 5.2 | 0.00 | 0.00 | 0.00 | 77 | 1013.9 |
| 20260905071538 | 78 | 168 | 2.6 | 5.2 | 0.00 | 0.00 | 0.00 | 77 | 1010.9 |
| 20260905071229 | 79 | 196 | 2.6 | 4.3 | 0.00 | 0.00 | 0.00 | 77 | 1013.9 |
| 20260905070734 | 79 | 195 | 2.6 | 4.3 | 0.00 | 0.00 | 0.00 | 77 | 1013.9 |
| 20260905070246 | 79 | 182 | 2.6 | 4.3 | 0.00 | 0.00 | 0.00 | 77 | 1013.9 |
| 20260905070045 | 79 | 199 | 2.6 | 4.3 | 0.00 | 0.00 | 0.00 | 77 | 1010.9 |
| 20260905065730 | 79 | 199 | 2.6 | 4.3 | 0.00 | 0.00 | 0.00 | 77 | 1014.0 |
| 20260905065242 | 79 | 192 | 3.5 | 5.2 | 0.00 | 0.00 | 0.00 | 77 | 1014.1 |
| 20260905064727 | 79 | 200 | 3.5 | 5.2 | 0.00 | 0.00 | 0.00 | 77 | 1014.2 |
| 20260905064548 | 79 | 200 | 3.5 | 5.2 | 0.00 | 0.00 | 0.00 | 77 | 1011.1 |
| 20260905064240 | 80 | 198 | 3.5 | 6.1 | 0.00 | 0.00 | 0.00 | 77 | 1014.1 |
| 20260905063723 | 80 | 177 | 4.3 | 6.1 | 0.00 | 0.00 | 0.00 | 77 | 1014.1 |
| 20260905063235 | 80 | 167 | 3.5 | 5.2 | 0.00 | 0.00 | 0.00 | 77 | 1014.1 |
| 20260905063058 | 79 | 169 | 2.6 | 4.3 | 0.00 | 0.00 | 0.00 | 77 | 1011.0 |
| 20260905062743 | 80 | 165 | 3.5 | 4.3 | 0.00 | 0.00 | 0.00 | 77 | 1014.1 |
| 20260905062226 | 80 | 164 | 3.5 | 4.3 | 0.00 | 0.00 | 0.00 | 77 | 1014.1 |
| 20260905061729 | 80 | 164 | 1.7 | 3.5 | 0.00 | 0.00 | 0.00 | 76 | 1014.1 |
| 20260905061524 | 80 | 178 | 2.6 | 3.5 | 0.00 | 0.00 | 0.00 | 76 | 1011.0 |
| 20260905061240 | 81 | 194 | 2.6 | 3.5 | 0.00 | 0.00 | 0.00 | 76 | 1014.1 |
| 20260905060810 | 81 | 172 | 2.6 | 4.3 | 0.00 | 0.00 | 0.00 | 76 | 1014.1 |
| 20260905060233 | 81 | 173 | 2.6 | 4.3 | 0.00 | 0.00 | 0.00 | 76 | 1014.2 |
| 20260905060055 | 80 | 196 | 2.6 | 4.3 | 0.00 | 0.00 | 0.00 | 76 | 1011.0 |
| 20260905055739 | 81 | 196 | 2.6 | 4.3 | 0.00 | 0.00 | 0.00 | 76 | 1014.1 |
| 20260905055223 | 81 | 196 | 3.5 | 4.3 | 0.00 | 0.00 | 0.00 | 75 | 1014.1 |
| 20260905054734 | 81 | 196 | 2.6 | 4.3 | 0.00 | 0.00 | 0.00 | 75 | 1014.1 |
| 20260905054600 | 81 | 196 | 2.6 | 4.3 | 0.00 | 0.00 | 0.00 | 75 | 1011.0 |
| 20260905054247 | 82 | 196 | 2.6 | 4.3 | 0.00 | 0.00 | 0.00 | 75 | 1014.1 |
| 20260905053727 | 82 | 178 | 3.5 | 4.3 | 0.00 | 0.00 | 0.00 | 75 | 1014.1 |
| 20260905053237 | 82 | 184 | 2.6 | 4.3 | 0.00 | 0.00 | 0.00 | 75 | 1014.0 |
| 20260905053005 | 81 | 178 | 2.6 | 4.3 | 0.00 | 0.00 | 0.00 | 75 | 1011.0 |
| 20260905052748 | 82 | 174 | 3.5 | 4.3 | 0.00 | 0.00 | 0.00 | 74 | 1014.0 |
| 20260905052237 | 82 | 173 | 3.5 | 4.3 | 0.00 | 0.00 | 0.00 | 74 | 1013.9 |
| 20260905051745 | 82 | 166 | 3.5 | 5.2 | 0.00 | 0.00 | 0.00 | 74 | 1013.9 |
| 20260905051546 | 82 | 163 | 2.6 | 5.2 | 0.00 | 0.00 | 0.00 | 74 | 1010.8 |
| 20260905051228 | 82 | 171 | 3.5 | 5.2 | 0.00 | 0.00 | 0.00 | 74 | 1013.9 |
| 20260905050736 | 82 | 168 | 3.5 | 7.0 | 0.00 | 0.00 | 0.00 | 74 | 1013.9 |
| 20260905050248 | 82 | 175 | 4.3 | 7.8 | 0.00 | 0.00 | 0.00 | 74 | 1013.9 |
| 20260905050053 | 82 | 157 | 3.5 | 6.1 | 0.00 | 0.00 | 0.00 | 74 | 1010.9 |
| 20260905045752 | 83 | 163 | 4.3 | 8.7 | 0.00 | 0.00 | 0.00 | 74 | 1014.0 |
| 20260905045241 | 83 | 163 | 5.2 | 8.7 | 0.00 | 0.00 | 0.00 | 74 | 1013.9 |
| 20260905044724 | 83 | 176 | 5.2 | 6.1 | 0.00 | 0.00 | 0.00 | 74 | 1013.9 |
| 20260905044538 | 82 | 162 | 4.3 | 7.0 | 0.00 | 0.00 | 0.00 | 74 | 1010.8 |
| 20260905044233 | 83 | 165 | 4.3 | 6.1 | 0.00 | 0.00 | 0.00 | 74 | 1013.8 |
| 20260905043741 | 83 | 163 | 3.5 | 6.1 | 0.00 | 0.00 | 0.00 | 74 | 1013.8 |
| 20260905043223 | 83 | 150 | 3.5 | 6.1 | 0.00 | 0.00 | 0.00 | 73 | 1013.7 |
| 20260905043041 | 83 | 148 | 3.5 | 6.1 | 0.00 | 0.00 | 0.00 | 73 | 1010.6 |
| 20260905042736 | 83 | 169 | 4.3 | 6.1 | 0.00 | 0.00 | 0.00 | 73 | 1013.7 |
| 20260905042248 | 83 | 165 | 2.6 | 4.3 | 0.00 | 0.00 | 0.00 | 73 | 1013.6 |
| 20260905041732 | 83 | 162 | 3.5 | 4.3 | 0.00 | 0.00 | 0.00 | 73 | 1013.6 |
| 20260905041513 | 83 | 169 | 3.5 | 5.2 | 0.00 | 0.00 | 0.00 | 73 | 1010.5 |
| 20260905041305 | 83 | 167 | 3.5 | 5.2 | 0.00 | 0.00 | 0.00 | 73 | 1013.6 |
| 20260905040722 | 84 | 190 | 2.6 | 7.0 | 0.00 | 0.00 | 0.00 | 73 | 1013.6 |
| 20260905040235 | 84 | 159 | 3.5 | 7.0 | 0.00 | 0.00 | 0.00 | 73 | 1013.6 |
| 20260905040053 | 83 | 153 | 3.5 | 7.0 | 0.00 | 0.00 | 0.00 | 73 | 1010.5 |
| 20260905035747 | 84 | 160 | 3.5 | 6.1 | 0.00 | 0.00 | 0.00 | 73 | 1013.5 |
| 20260905035228 | 84 | 194 | 2.6 | 6.1 | 0.00 | 0.00 | 0.00 | 73 | 1013.5 |
| 20260905034801 | 84 | 171 | 2.6 | 5.2 | 0.00 | 0.00 | 0.00 | 73 | 1013.5 |
| 20260905034539 | 84 | 171 | 3.5 | 5.2 | 0.00 | 0.00 | 0.00 | 73 | 1010.4 |
| 20260905034254 | 84 | 165 | 3.5 | 5.2 | 0.00 | 0.00 | 0.00 | 73 | 1013.5 |
| 20260905033743 | 85 | 198 | 2.6 | 5.2 | 0.00 | 0.00 | 0.00 | 73 | 1013.4 |
| 20260905033224 | 85 | 198 | 3.5 | 5.2 | 0.00 | 0.00 | 0.00 | 73 | 1013.4 |
| 20260905033021 | 84 | 198 | 2.6 | 5.2 | 0.00 | 0.00 | 0.00 | 73 | 1010.3 |
| 20260905032737 | 85 | 198 | 3.5 | 5.2 | 0.00 | 0.00 | 0.00 | 73 | 1013.4 |
| 20260905032222 | 85 | 182 | 4.3 | 6.1 | 0.00 | 0.00 | 0.00 | 72 | 1013.3 |
| 20260905031736 | 85 | 167 | 4.3 | 6.1 | 0.00 | 0.00 | 0.00 | 72 | 1013.2 |
| 20260905031533 | 85 | 200 | 4.3 | 6.1 | 0.00 | 0.00 | 0.00 | 72 | 1010.1 |
| 20260905031250 | 86 | 171 | 4.3 | 6.1 | 0.00 | 0.00 | 0.00 | 72 | 1013.2 |
| 20260905030733 | 86 | 186 | 4.3 | 7.0 | 0.00 | 0.00 | 0.00 | 72 | 1013.1 |
| 20260905030245 | 86 | 174 | 5.2 | 7.0 | 0.00 | 0.00 | 0.00 | 72 | 1013.1 |
| 20260905030035 | 86 | 177 | 4.3 | 7.0 | 0.00 | 0.00 | 0.00 | 72 | 1010.0 |
| 20260905025729 | 86 | 177 | 5.2 | 7.8 | 0.00 | 0.00 | 0.00 | 72 | 1013.1 |
| 20260905025258 | 87 | 196 | 4.3 | 7.0 | 0.00 | 0.00 | 0.00 | 72 | 1013.1 |
| 20260905024809 | 87 | 169 | 4.3 | 5.2 | 0.00 | 0.00 | 0.00 | 71 | 1013.1 |
| 20260905024549 | 86 | 167 | 3.5 | 6.1 | 0.00 | 0.00 | 0.00 | 71 | 1010.0 |
| 20260905024234 | 87 | 167 | 4.3 | 4.3 | 0.00 | 0.00 | 0.00 | 71 | 1013.2 |
| 20260905023743 | 87 | 197 | 2.6 | 5.2 | 0.00 | 0.00 | 0.00 | 70 | 1013.1 |
| 20260905023254 | 88 | 149 | 3.5 | 5.2 | 0.00 | 0.00 | 0.00 | 70 | 1013.1 |
| 20260905023015 | 87 | 186 | 3.5 | 5.2 | 0.00 | 0.00 | 0.00 | 70 | 1010.0 |
| 20260905022745 | 88 | 163 | 2.6 | 4.3 | 0.00 | 0.00 | 0.00 | 69 | 1013.0 |
| 20260905022225 | 88 | 163 | 3.5 | 4.3 | 0.00 | 0.00 | 0.00 | 69 | 1013.0 |
| 20260905021735 | 88 | 163 | 2.6 | 5.2 | 0.00 | 0.00 | 0.00 | 69 | 1013.0 |
| 20260905021519 | 88 | 163 | 2.6 | 6.1 | 0.00 | 0.00 | 0.00 | 68 | 1009.9 |
| 20260905021249 | 89 | 163 | 3.5 | 6.1 | 0.00 | 0.00 | 0.00 | 68 | 1012.9 |
| 20260905020731 | 89 | 159 | 3.5 | 6.1 | 0.00 | 0.00 | 0.00 | 68 | 1012.9 |
| 20260905020243 | 89 | 163 | 3.5 | 6.1 | 0.00 | 0.00 | 0.00 | 67 | 1012.8 |
| 20260905020048 | 89 | 164 | 3.5 | 5.2 | 0.00 | 0.00 | 0.00 | 67 | 1009.7 |
| 20260905015725 | 90 | 162 | 4.3 | 6.1 | 0.00 | 0.00 | 0.00 | 67 | 1012.9 |
| 20260905015238 | 90 | 155 | 4.3 | 6.1 | 0.00 | 0.00 | 0.00 | 66 | 1012.8 |
| 20260905014806 | 90 | 198 | 3.5 | 6.1 | 0.00 | 0.00 | 0.00 | 66 | 1012.7 |
| 20260905014513 | 90 | 167 | 3.5 | 5.2 | 0.00 | 0.00 | 0.00 | 65 | 1009.6 |
| 20260905014229 | 91 | 165 | 3.5 | 5.2 | 0.00 | 0.00 | 0.00 | 65 | 1012.7 |
| 20260905013741 | 91 | 158 | 2.6 | 5.2 | 0.00 | 0.00 | 0.00 | 65 | 1012.6 |
| 20260905013223 | 91 | 155 | 3.5 | 6.1 | 0.00 | 0.00 | 0.00 | 64 | 1012.5 |
| 20260905013010 | 91 | 163 | 3.5 | 7.0 | 0.00 | 0.00 | 0.00 | 64 | 1009.3 |
| 20260905012755 | 92 | 146 | 4.3 | 7.0 | 0.00 | 0.00 | 0.00 | 63 | 1012.4 |
| 20260905012248 | 92 | 161 | 4.3 | 7.0 | 0.00 | 0.00 | 0.00 | 63 | 1012.4 |
| 20260905011730 | 92 | 142 | 3.5 | 7.0 | 0.00 | 0.00 | 0.00 | 63 | 1012.4 |
| 20260905011556 | 92 | 150 | 3.5 | 7.0 | 0.00 | 0.00 | 0.00 | 63 | 1009.2 |
| 20260905011225 | 93 | 148 | 3.5 | 6.1 | 0.00 | 0.00 | 0.00 | 62 | 1012.4 |
| 20260905010732 | 93 | 141 | 4.3 | 6.1 | 0.00 | 0.00 | 0.00 | 62 | 1012.4 |
| 20260905010245 | 93 | 137 | 2.6 | 6.1 | 0.00 | 0.00 | 0.00 | 60 | 1012.3 |
| 20260905010024 | 93 | 137 | 3.5 | 6.1 | 0.00 | 0.00 | 0.00 | 60 | 1009.2 |
| 20260905005735 | 94 | 139 | 3.5 | 6.1 | 0.00 | 0.00 | 0.00 | 60 | 1012.3 |
| 20260905005247 | 94 | 200 | 1.7 | 2.6 | 0.00 | 0.00 | 0.00 | 59 | 1012.3 |
| 20260905004732 | 94 | 200 | 0.9 | 1.7 | 0.00 | 0.00 | 0.00 | 59 | 1012.2 |
| 20260905004543 | 94 | 200 | 0.9 | 1.7 | 0.00 | 0.00 | 0.00 | 58 | 1009.2 |
| 20260905004247 | 95 | 200 | 0.9 | 2.6 | 0.00 | 0.00 | 0.00 | 58 | 1012.3 |
| 20260905003737 | 95 | 200 | 0.9 | 3.5 | 0.00 | 0.00 | 0.00 | 58 | 1012.2 |
| 20260905003306 | 95 | 200 | 2.6 | 3.5 | 0.00 | 0.00 | 0.00 | 58 | 1012.2 |
| 20260905003052 | 94 | 200 | 1.7 | 3.5 | 0.00 | 0.00 | 0.00 | 58 | 1009.0 |
| 20260905002728 | 95 | 200 | 1.7 | 2.6 | 0.00 | 0.00 | 0.00 | 58 | 1012.2 |
| 20260905002242 | 95 | 200 | 1.7 | 2.6 | 0.00 | 0.00 | 0.00 | 58 | 1012.1 |
| 20260905001752 | 95 | 200 | 0.0 | 1.7 | 0.00 | 0.00 | 0.00 | 59 | 1012.2 |
| 20260905001544 | 95 | 200 | 0.0 | 1.7 | 0.00 | 0.00 | 0.00 | 59 | 1009.1 |
| 20260905001244 | 95 | 200 | 0.9 | 2.6 | 0.00 | 0.00 | 0.00 | 59 | 1012.2 |
| 20260905000726 | 96 | 200 | 0.9 | 2.6 | 0.00 | 0.00 | 0.00 | 60 | 1012.1 |
| 20260905000241 | 96 | 200 | 1.7 | 1.7 | 0.00 | 0.00 | 0.00 | 59 | 1012.2 |
| 20260905000050 | 95 | 200 | 0.9 | 2.6 | 0.00 | 0.00 | 0.00 | 59 | 1009.1 |
| 20260904235747 | 96 | 200 | 0.9 | 2.6 | 0.00 | 0.00 | 0.00 | 58 | 1012.2 |
| 20260904235231 | 96 | 200 | 0.9 | 2.6 | 0.00 | 0.00 | 0.00 | 58 | 1012.2 |
| 20260904234744 | 96 | 200 | 0.9 | 3.5 | 0.00 | 0.00 | 0.00 | 57 | 1012.2 |
| 20260904234552 | 96 | 200 | 0.9 | 3.5 | 0.00 | 0.00 | 0.00 | 57 | 1009.1 |
| 20260904234229 | 97 | 200 | 1.7 | 3.5 | 0.00 | 0.00 | 0.00 | 56 | 1012.2 |
| 20260904233741 | 97 | 200 | 1.7 | 3.5 | 0.00 | 0.00 | 0.00 | 57 | 1012.2 |
| 20260904233224 | 97 | 200 | 0.9 | 4.3 | 0.00 | 0.00 | 0.00 | 56 | 1012.2 |
| 20260904233100 | 97 | 200 | 0.9 | 5.2 | 0.00 | 0.00 | 0.00 | 56 | 1009.1 |
| 20260904233002 | 97 | 200 | 1.7 | 5.2 | 0.00 | 0.00 | 0.00 | 56 | 1009.1 |
| 20260904232735 | 97 | 200 | 2.6 | 5.2 | 0.00 | 0.00 | 0.00 | 56 | 1012.2 |
| 20260904232247 | 98 | 200 | 3.5 | 6.1 | 0.00 | 0.00 | 0.00 | 56 | 1012.3 |
| 20260904231726 | 98 | 196 | 3.5 | 7.0 | 0.00 | 0.00 | 0.00 | 56 | 1012.3 |
| 20260904231510 | 97 | 204 | 4.3 | 7.0 | 0.00 | 0.00 | 0.00 | 56 | 1009.2 |
| 20260904231300 | 98 | 207 | 4.3 | 7.0 | 0.00 | 0.00 | 0.00 | 56 | 1012.4 |
| 20260904230723 | 98 | 175 | 4.3 | 6.1 | 0.00 | 0.00 | 0.00 | 57 | 1012.4 |
| 20260904230235 | 98 | 200 | 3.5 | 6.1 | 0.00 | 0.00 | 0.00 | 56 | 1012.3 |
| 20260904230054 | 97 | 199 | 3.5 | 6.1 | 0.00 | 0.00 | 0.00 | 57 | 1009.2 |
| 20260904225747 | 98 | 198 | 2.6 | 3.5 | 0.00 | 0.00 | 0.00 | 56 | 1012.3 |
| 20260904225230 | 98 | 199 | 1.7 | 3.5 | 0.00 | 0.00 | 0.00 | 55 | 1012.4 |
| 20260904224742 | 98 | 199 | 1.7 | 4.3 | 0.00 | 0.00 | 0.00 | 54 | 1012.3 |
| 20260904224555 | 97 | 199 | 0.9 | 4.3 | 0.00 | 0.00 | 0.00 | 55 | 1009.1 |
| 20260904224228 | 98 | 199 | 1.7 | 5.2 | 0.00 | 0.00 | 0.00 | 56 | 1012.2 |
| 20260904223734 | 98 | 199 | 2.6 | 6.1 | 0.00 | 0.00 | 0.00 | 55 | 1012.3 |
| 20260904223249 | 99 | 199 | 3.5 | 6.1 | 0.00 | 0.00 | 0.00 | 54 | 1012.3 |
| 20260904223020 | 98 | 209 | 3.5 | 6.1 | 0.00 | 0.00 | 0.00 | 54 | 1009.2 |
| 20260904222732 | 99 | 184 | 3.5 | 8.7 | 0.00 | 0.00 | 0.00 | 54 | 1012.3 |
| 20260904222245 | 99 | 202 | 4.3 | 9.6 | 0.00 | 0.00 | 0.00 | 54 | 1012.4 |
| 20260904221727 | 99 | 165 | 4.3 | 10.4 | 0.00 | 0.00 | 0.00 | 54 | 1012.3 |
| 20260904221524 | 98 | 213 | 3.5 | 7.8 | 0.00 | 0.00 | 0.00 | 53 | 1009.2 |
| 20260904221242 | 99 | 223 | 6.1 | 7.8 | 0.00 | 0.00 | 0.00 | 52 | 1012.3 |
| 20260904220722 | 100 | 204 | 4.3 | 9.6 | 0.00 | 0.00 | 0.00 | 51 | 1012.3 |
| 20260904220234 | 100 | 171 | 7.0 | 9.6 | 0.00 | 0.00 | 0.00 | 51 | 1012.3 |
| 20260904220032 | 100 | 175 | 7.0 | 9.6 | 0.00 | 0.00 | 0.00 | 51 | 1009.0 |
| 20260904215742 | 100 | 174 | 7.0 | 9.6 | 0.00 | 0.00 | 0.00 | 51 | 1012.2 |
| 20260904215226 | 100 | 200 | 6.1 | 10.4 | 0.00 | 0.00 | 0.00 | 53 | 1012.2 |
| 20260904214738 | 99 | 184 | 7.8 | 10.4 | 0.00 | 0.00 | 0.00 | 51 | 1012.2 |